Time,TemperatureF,DewpointF,PressureIn,WindDirection,WindDirectionDegrees,WindSpeedMPH,WindSpeedGustMPH,Humidity,HourlyPrecipIn,Conditions,Clouds,dailyrainin,SolarRadiationWatts/m^2,SoftwareType,DateUTC
2013-12-23 04:00:00,39.0,33.0,30.32,NNE,30,2.0,-999.0,76,0.00,,,-99.99,-0.800000,,2013-12-23 12:00:00,
2013-12-23 04:42:00,39.0,33.0,30.32,NNE,30,2.0,-999.0,76,0.00,,,-99.99,-0.800000,,2013-12-23 12:42:00,
2013-12-23 04:52:00,39.0,33.0,30.32,NNE,30,2.0,-999.0,76,0.00,,,-99.99,-0.800000,,2013-12-23 12:52:00,
2013-12-23 06:00:00,41.0,32.0,30.33,North,359,4.0,-999.0,72,0.00,,,-99.99,-0.700000,,2013-12-23 14:00:00,
2013-12-23 06:42:00,41.0,32.0,30.33,North,359,4.0,-999.0,72,0.00,,,-99.99,-0.700000,,2013-12-23 14:42:00,
2013-12-23 06:52:00,41.0,32.0,30.33,North,359,4.0,-999.0,72,0.00,,,-99.99,-0.700000,,2013-12-23 14:52:00,
2013-12-23 07:00:00,42.0,32.0,30.35,North,7,3.0,-999.0,68,0.00,,,-99.99,-1.300000,,2013-12-23 15:00:00,
2013-12-23 07:43:00,42.0,32.0,30.35,North,7,3.0,-999.0,68,0.00,,,-99.99,-1.300000,,2013-12-23 15:43:00,
2013-12-23 07:54:00,42.0,32.0,30.35,North,7,3.0,-999.0,68,0.00,,,-99.99,-1.300000,,2013-12-23 15:54:00,
2013-12-23 08:00:00,42.0,32.0,30.36,North,0,4.0,-999.0,67,0.00,,,-99.99,6.300000,,2013-12-23 16:00:00,
2013-12-23 08:43:00,42.0,32.0,30.36,North,0,4.0,-999.0,67,0.00,,,-99.99,6.300000,,2013-12-23 16:43:00,
2013-12-23 08:53:00,42.0,32.0,30.36,North,0,4.0,-999.0,67,0.00,,,-99.99,6.300000,,2013-12-23 16:53:00,
2013-12-23 09:00:00,44.0,33.0,30.37,NNE,13,7.0,-999.0,63,0.00,,,-99.99,31.700001,,2013-12-23 17:00:00,
2013-12-23 09:42:00,44.0,33.0,30.37,NNE,13,7.0,-999.0,63,0.00,,,-99.99,31.700001,,2013-12-23 17:42:00,
2013-12-23 09:52:00,44.0,33.0,30.37,NNE,13,7.0,-999.0,63,0.00,,,-99.99,31.700001,,2013-12-23 17:52:00,
2013-12-23 10:00:00,51.0,35.0,30.39,North,8,4.0,-999.0,53,0.00,,,-99.99,286.100006,,2013-12-23 18:00:00,
2013-12-23 10:42:00,51.0,35.0,30.39,North,8,4.0,-999.0,53,0.00,,,-99.99,286.100006,,2013-12-23 18:42:00,
2013-12-23 10:52:00,51.0,35.0,30.39,North,8,4.0,-999.0,53,0.00,,,-99.99,286.100006,,2013-12-23 18:52:00,
2013-12-23 11:00:00,59.0,35.0,30.40,NE,53,2.0,-999.0,41,0.00,,,-99.99,410.600006,,2013-12-23 19:00:00,
2013-12-23 11:42:00,59.0,35.0,30.40,NE,53,2.0,-999.0,41,0.00,,,-99.99,410.600006,,2013-12-23 19:42:00,
2013-12-23 11:52:00,59.0,35.0,30.40,NE,53,2.0,-999.0,41,0.00,,,-99.99,410.600006,,2013-12-23 19:52:00,
2013-12-23 12:00:00,63.0,34.0,30.38,NW,320,0.0,-999.0,33,0.00,,,-99.99,461.500000,,2013-12-23 20:00:00,
2013-12-23 12:42:00,63.0,34.0,30.38,NW,320,0.0,-999.0,33,0.00,,,-99.99,461.500000,,2013-12-23 20:42:00,
2013-12-23 12:52:00,63.0,34.0,30.38,NW,320,0.0,-999.0,33,0.00,,,-99.99,461.500000,,2013-12-23 20:52:00,
2013-12-23 13:00:00,63.0,34.0,30.36,NW,312,1.0,-999.0,33,0.00,,,-99.99,331.500000,,2013-12-23 21:00:00,
2013-12-23 13:43:00,63.0,34.0,30.36,NW,312,1.0,-999.0,33,0.00,,,-99.99,331.500000,,2013-12-23 21:43:00,
2013-12-23 13:53:00,63.0,34.0,30.36,NW,312,1.0,-999.0,33,0.00,,,-99.99,331.500000,,2013-12-23 21:53:00,
2013-12-23 14:00:00,63.0,33.0,30.34,SSW,211,2.0,-999.0,33,0.00,,,-99.99,175.600006,,2013-12-23 22:00:00,
2013-12-23 14:43:00,63.0,33.0,30.34,SSW,211,2.0,-999.0,33,0.00,,,-99.99,175.600006,,2013-12-23 22:43:00,
2013-12-23 14:53:00,63.0,33.0,30.34,SSW,211,2.0,-999.0,33,0.00,,,-99.99,175.600006,,2013-12-23 22:53:00,
2013-12-23 15:00:00,61.0,33.0,30.34,SW,228,2.0,-999.0,34,0.00,,,-99.99,83.000000,,2013-12-23 23:00:00,
2013-12-23 15:42:00,61.0,33.0,30.34,SW,228,2.0,-999.0,34,0.00,,,-99.99,83.000000,,2013-12-23 23:42:00,
2013-12-23 15:53:00,61.0,33.0,30.34,SW,228,2.0,-999.0,34,0.00,,,-99.99,83.000000,,2013-12-23 23:53:00,
2013-12-23 16:00:00,58.0,37.0,30.34,SSW,197,1.0,-999.0,45,0.00,,,-99.99,27.400000,,2013-12-24 00:00:00,
2013-12-23 16:42:00,58.0,37.0,30.34,SSW,197,1.0,-999.0,45,0.00,,,-99.99,27.400000,,2013-12-24 00:42:00,
2013-12-23 16:52:00,58.0,37.0,30.34,SSW,197,1.0,-999.0,45,0.00,,,-99.99,27.400000,,2013-12-24 00:52:00,
2013-12-23 19:00:00,44.0,35.0,30.33,WSW,257,1.0,-999.0,72,0.00,,,-99.99,-0.700000,,2013-12-24 03:00:00,
2013-12-23 19:43:00,44.0,35.0,30.33,WSW,257,1.0,-999.0,72,0.00,,,-99.99,-0.700000,,2013-12-24 03:43:00,
2013-12-23 19:53:00,44.0,35.0,30.33,WSW,257,1.0,-999.0,72,0.00,,,-99.99,-0.700000,,2013-12-24 03:53:00,
2013-12-23 20:00:00,44.0,36.0,30.33,West,268,1.0,-999.0,71,0.00,,,-99.99,-0.700000,,2013-12-24 04:00:00,
2013-12-23 20:43:00,44.0,36.0,30.33,West,268,1.0,-999.0,71,0.00,,,-99.99,-0.700000,,2013-12-24 04:43:00,
2013-12-23 20:53:00,44.0,36.0,30.33,West,268,1.0,-999.0,71,0.00,,,-99.99,-0.700000,,2013-12-24 04:53:00,
2013-12-23 21:00:00,41.0,35.0,30.33,NW,319,0.0,-999.0,78,0.00,,,-99.99,-1.800000,,2013-12-24 05:00:00,
2013-12-23 21:42:00,41.0,35.0,30.33,NW,319,0.0,-999.0,78,0.00,,,-99.99,-1.800000,,2013-12-24 05:42:00,
2013-12-23 21:52:00,41.0,35.0,30.33,NW,319,0.0,-999.0,78,0.00,,,-99.99,-1.800000,,2013-12-24 05:52:00,
2013-12-23 22:00:00,43.0,36.0,30.32,WNW,288,1.0,-999.0,75,0.00,,,-99.99,-0.300000,,2013-12-24 06:00:00,
2013-12-23 22:42:00,43.0,36.0,30.32,WNW,288,1.0,-999.0,75,0.00,,,-99.99,-0.300000,,2013-12-24 06:42:00,
2013-12-23 22:52:00,43.0,36.0,30.32,WNW,288,1.0,-999.0,75,0.00,,,-99.99,-0.300000,,2013-12-24 06:52:00,
2013-12-23 23:00:00,46.0,36.0,30.32,NNW,346,2.0,-999.0,66,0.00,,,-99.99,-0.700000,,2013-12-24 07:00:00,
2013-12-23 23:42:00,46.0,36.0,30.32,NNW,346,2.0,-999.0,66,0.00,,,-99.99,-0.700000,,2013-12-24 07:42:00,
2013-12-23 23:52:00,46.0,36.0,30.32,NNW,346,2.0,-999.0,66,0.00,,,-99.99,-0.700000,,2013-12-24 07:52:00,